THORAD AGENA D DEB, 42552

Orbit data source: Space-Track

THORAD AGENA D DEB, 42552 is space debris in SSO originally from a launch on Wed, 08 Apr 1970 UTC launched from the Air Force Western Test Range (AFWTR). Debris objects in space refer to the collection of defunct objects orbiting the Earth. Examples of debris include non-operational satellites, rocket bodies, and fragments generated from explosions, collisions, or faulty payload assembly.

Loading next visibility...
Identifier
42552, 1970-025TJ
Orbit
SSO
Country
Flag of USUS
Related business
Manufacturer
Unknown
Mission
Spacecraft
Bus & Motor
Unknown
Mass
Unknown
Launch date (UTC)
1970-04-08 (56 years ago)
Launch vehicle
Unknown
Launch site
Air Force Western Test Range (AFWTR)
Object type
Payload
Rocket body
Debris
Shape & HBR
Unknown shape, 0.1 m
Radar Cross Section
Small (<0.1 m²)

Expand to show TLE details & history
Last TLE update: 1 day ago

TLE from 1 day ago
0 THORAD AGENA D DEB
1 42552U 70025TJ  25349.07566810  .00001548  00000-0  25255-2 0  9997
2 42552  99.3879 292.8341 0177164   7.4195 352.9497 13.43285909589067
Epoch: 2025-12-15T01:48Z
TLE epoch observation values (Epoch: 2025-12-15T01:48:57.723Z)
Latitude
-0°
Longitude
-178.38585°
Altitude
968.432 km
Speed
7.432 km/s
True Right ascension
19h 31m 20s
True Declination
0° 00' 00"
Sunlit
Object was in daylight at epoch
Visualization orbit readout
Latitude
Unknown
Longitude
Unknown
Altitude
Unknown
Speed
Unknown
Apparent Right ascension
Unknown
Apparent Declination
Unknown
Sunlit
N/A
Visualization observer readout
Local Sidereal Time
09:43:56
Azimuth
Unknown
Elevation
Unknown
Doppler factor
Unknown
Orbital elements
Apogee altitude
1,226.743 km
Perigee altitude
961.972 km
Semi-major axis
7,472.494 km
Eccentricity
0.01772
Inclination
99.3879°
RAAN
292.8341°
Arg. of periapsis
7.4195°
True anomaly
352.69492°
Mean anomaly
352.9497°
Eccentric anomaly
352.82288°
Mean motion
3.36004 °/min
Orbital period
107.14 mins
BSTAR
0.0025255
Loading maneuver chart data...
Computing Atmospheric mass density...

Documentation

Showing up to 5 results
|